Preview of NWS' New Version of Forecast
This preview is not operational and should not be used for support decisions.

Regional Weather Roundup (RWR)

Issued by National Weather Service (NWS)

                            
000
ASUS46 KSEW 191110
RWRWA 

WASHINGTON REGIONAL WEATHER ROUNDUP
NATIONAL WEATHER SERVICE SEATTLE WA
300 AM PST TUE FEB 19 2019

NOTE:"FAIR" INDICATES FEW OR NO CLOUDS BELOW 12,000 FEET WITH NO 
SIGNIFICANT WEATHER AND/OR OBSTRUCTIONS TO VISIBILITY.

WAZ507-509-555>559-191200-
SEATTLE, TACOMA, EVERETT, AND VICINITY
  
CITY           SKY/WX    TMP DP  RH WIND       PRES   REMARKS
EVERETT        CLOUDY    37  35  92 SE6       30.27F                  
BOEING FIELD   CLOUDY    39  36  89 SE3       30.29F                  
RENTON         CLOUDY    38  35  89 E5        30.29F                  
SEATAC AIRPORT CLOUDY    39  35  86 S7        30.27F                  
JBLM-MCCHORD   CLOUDY    37  37 100 S6        30.29F                  
PUYALLUP       CLOUDY    39  36  87 CALM      30.29F                  
BREMERTON      CLOUDY    34  34 100 SW3       30.28F                  
JBLM-FT LEWIS  NOT AVBL                                               
TACOMA NARROWS CLOUDY    39  35  86 S7        30.28F                  
$$
 
WAZ001-503-506-510-514-515-191200-
NORTH INTERIOR
  
CITY           SKY/WX    TMP DP  RH WIND       PRES   REMARKS
BELLINGHAM     CLOUDY    32  25  75 CALM      30.28F                  
FRIDAY HARBOR  CLOUDY    37  35  92 CALM      30.28F                  
EASTSOUND      CLOUDY    39  37  93 S5        30.27S                  
PORT ANGELES   CLOUDY    35  31  85 SW7       30.28S                  
EDIZ HOOK      CLOUDY    38  34  84 SW5       30.29S                  
PORT TOWNSEND  CLOUDY    34  34 100 CALM      30.28S FOG              
NAS WHIDBEY    LGT RAIN  40  35  83 N8        30.33S                  
ARLINGTON      CLOUDY    33  31  92 CALM      30.29F                  
BURLINGTON     CLOUDY    34  32  93 CALM      30.29S                  
$$
 
WAZ020-022-039-040-504-511-512-191200-
SOUTHWEST INTERIOR
  
CITY           SKY/WX    TMP DP  RH WIND       PRES   REMARKS
SHELTON        CLOUDY    33  30  88 CALM      30.26F                  
OLYMPIA        CLOUDY    37  35  92 S7        30.30F                  
CHEHALIS       CLOUDY    37  37 100 SW3       30.31F                  
KELSO          CLOUDY    38  36  92 SE5       30.35F                  
VANCOUVER      CLOUDY    38  35  89 CALM      30.35S                  
SCAPPOOSE, OR  CLOUDY    38  36  92 NW3       30.35S FOG              
PORTLAND, OR   CLOUDY    39  35  86 E5        30.35S                  
$$
 
WAZ021-516-517-191200-
WASHINGTON COAST
  
CITY           SKY/WX    TMP DP  RH WIND       PRES   REMARKS
FORKS          CLOUDY    37  33  85 E5        30.28S                  
HOQUIAM        LGT RAIN  39  38  96 CALM      30.30F FOG              
ASTORIA, OR    CLOUDY    38  37  97 CALM      30.32F                  
$$
 
WAZ019-023-024-040-567>569-191200-
CASCADE MOUNTAINS AND COLUMBIA GORGE
  
CITY           SKY/WX    TMP DP  RH WIND       PRES   REMARKS
STAMPEDE PASS  LGT SNOW  26  22  84 W12G24    30.08F VSB 3/4 WCI  16  
TROUTDALE, OR  CLOUDY    39  36  89 CALM      30.35S                  
HOOD RIVER, OR CLOUDY    37  32  81 NW8       30.27F                  
THE DALLES, OR MOCLDY    36  28  73 W8        30.27S                  
$$

WAZ026-027-041>044-520-521-191200-
EAST SLOPES
  
CITY           SKY/WX    TMP DP  RH WIND       PRES   REMARKS
OMAK           CLEAR      9   5  84 CALM      30.26R                  
WENATCHEE      PTCLDY    15  10  80 E5        30.23R                  
ELLENSBURG     PTCLDY    15  11  83 E5        30.15F                  
YAKIMA         CLEAR     11   7  84 SW5       30.23F                  
SUNNYSIDE ARPT SUNNY     15  14  96 CALM      30.26                   
YAKIMA TC      FAIR      14  11  88 CALM      30.19F                  
$$

WAZ028-034-035-191200-
COLUMBIA BASIN
  
CITY           SKY/WX    TMP DP  RH WIND       PRES   REMARKS
EPHRATA        PTCLDY    12   7  80 N9        30.23S                  
MOSES LAKE     PTCLDY   N/A N/A N/A N7        30.24S                  
PASCO          CLEAR     18  16  92 NE3       30.28F                  
RICHLAND ARPT  SUNNY     17  15  91 CALM      30.28S                  
HERMISTON, OR  PTCLDY    23  20  88 S5        30.24F                  
$$

WAZ036>038-191200-
NORTHEAST WASHINGTON
  
CITY           SKY/WX    TMP DP  RH WIND       PRES   REMARKS
SPOKANE GEIGER PTCLDY     9   4  80 CALM      30.16F                  
SPOKANE FELTS  CLOUDY    13   9  84 CALM      30.21F                  
FAIRCHILD AFB  MOCLDY     9   7  93 CALM      30.14F                  
COEURDALENE,ID MOCLDY     7   4  87 NE5       30.18F                  
DEER PARK      CLOUDY     6   2  83 E3        30.18F                  
$$

WAZ029>033-191200-
SOUTHEAST WASHINGTON
  
CITY           SKY/WX    TMP DP  RH WIND       PRES   REMARKS
PULLMAN        CLOUDY    19  14  81 E12       30.17S WCI   7          
LEWISTON, ID   CLOUDY    26  18  71 E5        30.23S                  
WALLA WALLA    CLOUDY    28  22  78 SE5       30.21F                  
PENDLETON, OR  CLOUDY    31  26  82 CALM      30.19F                  
$$